Change the Weather History Date:

Sunday, July 21, 2013

  Actual Average Record
Temperature  
Mean Temperature 79 °F 79 °F  
Max Temperature 87 °F 90 °F 106 °F (1980)
Min Temperature 70 °F 69 °F 49 °F (1944)
Degree Days  
Heating Degree Days 0 0  
Month to date heating degree days 0 0  
Since 1 June heating degree days 9 6  
Since 1 July heating degree days 0 0  
Cooling Degree Days 14 14  
Month to date cooling degree days 286 291  
Year to date cooling degree days 741 734  
Since 1 June cooling degree days 593 595  
Growing Degree Days 27 (Base 50)    
Moisture  
Dew Point 69 °F    
Average Humidity 78    
Maximum Humidity 97    
Minimum Humidity 59    
Precipitation  
Precipitation 0.05 in 0.14 in 2.10 in (1940)
Month to date precipitation 0.93 3.08  
Year to date precipitation 26.34 23.32  
Sea Level Pressure  
Sea Level Pressure 29.88 in    
Wind  
Wind Speed 7 mph (SSW)    
Max Wind Speed 16 mph    
Max Gust Speed 21 mph    
Visibility 10 miles    
Events Rain , Thunderstorm    
T = Trace of Precipitation, MM = Missing Value Source: NWS Daily Summary

Daily Weather History Graph

Daily Weather History Graph

Search for Another Location

Airport or City:

Trip Planner

Search our weather history database for the weather conditions in past years. The results will help you decide how hot, cold, wet, or windy it might be!

Date:

Astronomy

Jul. 21, 2013 Rise Set
Actual Time 6:05 AM CDT 8:32 PM CDT
Civil Twilight 5:34 AM CDT 9:03 PM CDT
Nautical Twilight 4:56 AM CDT 9:40 PM CDT
Astronomical Twilight 4:14 AM CDT 10:22 PM CDT
Moon 7:31 PM CDT (7/21) 4:51 AM CDT (7/21)
Length of Visible Light 15h 28m
Length of Day
14h 27m
Waxing Gibbous, 98% of the Moon is Illuminated
Jul 21
Waxing Gibbous
Jul 22
Full
Jul 29
Last Quarter
Aug 6
New
Aug 14
First Quarter

Hourly Weather History & Observations

Time (CDT) Temp. Heat Index Dew Point Humidity Pressure Visibility Wind Dir Wind Speed Gust Speed Precip Events Conditions
12:32 AM 73.4 °F - 69.8 °F 88% 29.94 in 10.0 mi South 13.8 mph - 0.01 in Rain , Thunderstorm Light Thunderstorms and Rain
12:53 AM 73.0 °F - 66.0 °F 79% 29.90 in 10.0 mi South 5.8 mph - 0.02 in Rain Light Rain
1:53 AM 72.0 °F - 68.0 °F 87% 29.90 in 10.0 mi WSW 8.1 mph - 0.02 in Rain Light Rain
2:53 AM 72.0 °F - 68.0 °F 87% 29.90 in 10.0 mi SW 5.8 mph - 0.00 in   Clear
3:53 AM 72.0 °F - 68.0 °F 87% 29.89 in 10.0 mi SW 4.6 mph - N/A   Clear
4:53 AM 70.0 °F - 68.0 °F 93% 29.88 in 10.0 mi South 6.9 mph - N/A   Partly Cloudy
5:53 AM 70.0 °F - 68.0 °F 93% 29.88 in 10.0 mi SW 3.5 mph - N/A   Clear
6:53 AM 71.1 °F - 68.0 °F 90% 29.90 in 10.0 mi South 6.9 mph - N/A   Scattered Clouds
7:53 AM 72.0 °F - 69.1 °F 91% 29.91 in 10.0 mi SSW 5.8 mph - N/A   Partly Cloudy
8:53 AM 73.9 °F - 70.0 °F 87% 29.93 in 10.0 mi SW 5.8 mph - N/A   Overcast
9:53 AM 75.0 °F - 70.0 °F 84% 29.93 in 10.0 mi SW 6.9 mph - 0.00 in   Overcast
10:53 AM 75.9 °F - 70.0 °F 82% 29.94 in 10.0 mi SSW 4.6 mph - N/A   Mostly Cloudy
11:53 AM 78.1 °F - 70.0 °F 76% 29.92 in 10.0 mi South 4.6 mph - N/A   Mostly Cloudy
12:53 PM 80.1 °F 83.2 °F 70.0 °F 71% 29.91 in 10.0 mi SW 9.2 mph - 0.01 in   Partly Cloudy
1:53 PM 82.9 °F 87.0 °F 70.0 °F 65% 29.88 in 10.0 mi South 9.2 mph - N/A   Partly Cloudy
2:53 PM 78.1 °F - 72.0 °F 81% 29.86 in 4.0 mi South 9.2 mph 20.7 mph 0.02 in Rain Light Rain
3:53 PM 84.0 °F 89.0 °F 71.1 °F 65% 29.84 in 10.0 mi SSW 8.1 mph - 0.00 in   Scattered Clouds
4:53 PM 84.9 °F 88.2 °F 68.0 °F 57% 29.83 in 10.0 mi SSW 10.4 mph - N/A   Overcast
5:53 PM 84.9 °F 88.2 °F 68.0 °F 57% 29.83 in 10.0 mi SSW 4.6 mph - N/A   Scattered Clouds
6:53 PM 81.0 °F 84.9 °F 71.1 °F 72% 29.83 in 10.0 mi NE 13.8 mph - N/A   Overcast
7:53 PM 77.0 °F - 72.0 °F 84% 29.83 in 10.0 mi ENE 9.2 mph - N/A   Clear
8:53 PM 75.0 °F - 71.1 °F 87% 29.84 in 10.0 mi ESE 5.8 mph - N/A   Mostly Cloudy
9:53 PM 73.9 °F - 70.0 °F 87% 29.87 in 10.0 mi East 3.5 mph - N/A   Mostly Cloudy
10:53 PM 73.0 °F - 70.0 °F 90% 29.87 in 10.0 mi Calm Calm - N/A   Partly Cloudy
11:53 PM 73.0 °F - 70.0 °F 90% 29.86 in 10.0 mi SSE 5.8 mph - N/A   Clear